Back to catalog

STARLINK-36200

AliveCommunicationsVLEO
NORAD 67101·PAYLOAD·🇺🇸 United States

Launched Dec 14, 2025 from Vandenberg Space Force Base

Loading…

Next Passes (next 24 hours)

TLE

FreshSource: CelesTrak SupGP

Epoch: Sep 14, 2026, 15:08 UTC

1 67101C 25298AC  26257.63104167 -.00054989  00000+0 -46086-2 0  2570
2 67101  69.9995 258.2170 0003767 271.5589 144.0556 14.98353559    17

Track STARLINK-36200 in real time with AllMySat

Download on the App Store